When you browse on this site, cookies collect data to enhance your experience and personalize the content and advertising you see.
Visit our Privacy Policy to learn more. By continuing to use the site, you agree to this use of cookies and data.
  • en France
  • Liste des pays
  • À 7 jours
  • Température de l'eau
  • Carte satellitaire
  • Carte météo
  • Widgets météo
  • user-avatar
    Se connecter

    Météo par heure à Wilmslow

    Ce jour, 16 Juin, Dimanche

    Heure Température Précipitation Vent Pression Humidité
    00:00 +9°C° 0 mm 2 m/s 751 mmHg 85%
    01:00 +8°C° 0 mm 3 m/s 751 mmHg 86%
    02:00 +8°C° 0 mm 3 m/s 751 mmHg 87%
    03:00 +8°C° 0 mm 3 m/s 751 mmHg 89%
    04:00 +8°C° 0 mm 3 m/s 751 mmHg 89%
    05:00 +9°C° 0 mm 3 m/s 751 mmHg 89%
    06:00 +10°C° 0 mm 4 m/s 751 mmHg 89%
    07:00 +11°C° 0 mm 4 m/s 751 mmHg 84%
    08:00 +13°C° 0 mm 4 m/s 751 mmHg 78%
    09:00 +14°C° 0 mm 4 m/s 751 mmHg 73%
    10:00 +15°C° 0.5 mm 5 m/s 751 mmHg 73%
    11:00 +16°C° 0.5 mm 5 m/s 751 mmHg 73%
    12:00 +16°C° 0.5 mm 5 m/s 751 mmHg 74%
    13:00 +17°C° 0.6 mm 6 m/s 751 mmHg 72%
    14:00 +17°C° 0.6 mm 6 m/s 751 mmHg 70%
    15:00 +19°C° 0.6 mm 6 m/s 751 mmHg 68%
    16:00 +17°C° 0.3 mm 6 m/s 751 mmHg 72%
    17:00 +16°C° 0.3 mm 5 m/s 751 mmHg 77%
    18:00 +15°C° 0.3 mm 5 m/s 751 mmHg 81%
    19:00 +14°C° 0.2 mm 5 m/s 752 mmHg 83%
    20:00 +14°C° 0.2 mm 5 m/s 752 mmHg 85%
    21:00 +13°C° 0.2 mm 5 m/s 752 mmHg 87%
    22:00 +13°C° 0 mm 6 m/s 752 mmHg 87%
    23:00 +11°C° 0 mm 6 m/s 752 mmHg 88%

    Demain, 17 Juin, Lundi

    Heure Température Précipitation Vent Pression Humidité
    00:00 +11°C° 0 mm 6 m/s 752 mmHg 88%
    01:00 +11°C° 0 mm 6 m/s 752 mmHg 88%
    02:00 +11°C° 0 mm 6 m/s 752 mmHg 88%
    03:00 +11°C° 0 mm 6 m/s 752 mmHg 87%
    04:00 +12°C° 0 mm 5 m/s 752 mmHg 87%
    05:00 +12°C° 0 mm 5 m/s 752 mmHg 87%
    06:00 +12°C° 0 mm 5 m/s 752 mmHg 87%
    07:00 +11°C° 0.2 mm 6 m/s 752 mmHg 87%
    08:00 +13°C° 0.2 mm 6 m/s 752 mmHg 87%
    09:00 +13°C° 0.2 mm 6 m/s 752 mmHg 87%
    10:00 +14°C° 0.2 mm 6 m/s 752 mmHg 82%
    11:00 +16°C° 0.2 mm 6 m/s 752 mmHg 78%
    12:00 +17°C° 0.2 mm 7 m/s 752 mmHg 74%
    13:00 +16°C° 0.2 mm 6 m/s 752 mmHg 74%
    14:00 +16°C° 0.2 mm 6 m/s 752 mmHg 75%
    15:00 +16°C° 0.2 mm 5 m/s 752 mmHg 76%
    16:00 +16°C° 0.1 mm 5 m/s 752 mmHg 76%
    17:00 +16°C° 0.1 mm 5 m/s 752 mmHg 77%
    18:00 +16°C° 0.1 mm 5 m/s 752 mmHg 77%
    19:00 +15°C° 0 mm 5 m/s 752 mmHg 79%
    20:00 +14°C° 0 mm 4 m/s 752 mmHg 81%
    21:00 +13°C° 0 mm 3 m/s 753 mmHg 84%
    22:00 +12°C° 0 mm 3 m/s 753 mmHg 85%
    23:00 +11°C° 0 mm 3 m/s 753 mmHg 86%

    Après-demain, 18 Juin, Mardi

    Heure Température Précipitation Vent Pression Humidité
    00:00 +10°C° 0 mm 3 m/s 753 mmHg 87%
    01:00 +10°C° 0 mm 3 m/s 753 mmHg 89%
    02:00 +9°C° 0 mm 3 m/s 753 mmHg 90%
    03:00 +9°C° 0 mm 3 m/s 753 mmHg 91%
    04:00 +9°C° 0 mm 2 m/s 753 mmHg 90%
    05:00 +10°C° 0 mm 2 m/s 753 mmHg 89%
    06:00 +10°C° 0 mm 2 m/s 753 mmHg 87%
    07:00 +12°C° 0 mm 3 m/s 753 mmHg 82%
    08:00 +13°C° 0 mm 3 m/s 753 mmHg 77%
    09:00 +16°C° 0 mm 3 m/s 753 mmHg 72%
    10:00 +17°C° 0 mm 3 m/s 753 mmHg 69%
    11:00 +17°C° 0 mm 3 m/s 753 mmHg 66%
    12:00 +18°C° 0 mm 3 m/s 753 mmHg 62%
    13:00 +19°C° 0 mm 3 m/s 753 mmHg 63%
    14:00 +19°C° 0 mm 3 m/s 752 mmHg 64%
    15:00 +19°C° 0 mm 3 m/s 752 mmHg 64%
    16:00 +18°C° 0 mm 2 m/s 752 mmHg 67%
    17:00 +19°C° 0 mm 1 m/s 752 mmHg 70%
    18:00 +19°C° 0 mm 1 m/s 752 mmHg 73%
    19:00 +18°C° 0.1 mm 1 m/s 752 mmHg 76%
    20:00 +16°C° 0.1 mm 1 m/s 752 mmHg 79%
    21:00 +15°C° 0.1 mm 1 m/s 752 mmHg 82%
    22:00 +15°C° 0.4 mm 1 m/s 751 mmHg 85%
    23:00 +14°C° 0.4 mm 1 m/s 751 mmHg 88%

    19 Juin, Mercredi

    Heure Température Précipitation Vent Pression Humidité
    00:00 +14°C° 0.4 mm 1 m/s 751 mmHg 90%
    01:00 +14°C° 0.1 mm 1 m/s 750 mmHg 90%
    02:00 +14°C° 0.1 mm 1 m/s 750 mmHg 90%
    03:00 +13°C° 0.1 mm 1 m/s 750 mmHg 90%
    04:00 +14°C° 0 mm 1 m/s 750 mmHg 89%
    05:00 +14°C° 0 mm 1 m/s 750 mmHg 87%
    06:00 +15°C° 0 mm 1 m/s 749 mmHg 86%
    07:00 +15°C° 0 mm 1 m/s 749 mmHg 84%
    08:00 +16°C° 0 mm 1 m/s 749 mmHg 82%
    09:00 +16°C° 0 mm 1 m/s 749 mmHg 81%
    10:00 +16°C° 0.1 mm 1 m/s 749 mmHg 82%
    11:00 +16°C° 0.1 mm 1 m/s 749 mmHg 84%
    12:00 +15°C° 0.1 mm 2 m/s 748 mmHg 86%
    13:00 +15°C° 0.8 mm 2 m/s 748 mmHg 88%
    14:00 +14°C° 0.8 mm 2 m/s 748 mmHg 90%
    15:00 +13°C° 0.8 mm 3 m/s 748 mmHg 93%
    16:00 +14°C° 0.1 mm 2 m/s 748 mmHg 92%
    17:00 +13°C° 0.1 mm 2 m/s 748 mmHg 92%
    18:00 +13°C° 0.1 mm 2 m/s 748 mmHg 91%
    19:00 +13°C° 0 mm 2 m/s 748 mmHg 91%
    20:00 +13°C° 0 mm 2 m/s 748 mmHg 91%
    21:00 +12°C° 0 mm 2 m/s 748 mmHg 91%
    22:00 +10°C° 0 mm 2 m/s 748 mmHg 91%
    23:00 +10°C° 0 mm 2 m/s 749 mmHg 91%

    20 Juin, Jeudi

    Heure Température Précipitation Vent Pression Humidité
    00:00 +10°C° 0 mm 1 m/s 749 mmHg 91%
    01:00 +10°C° 0 mm 1 m/s 749 mmHg 92%
    02:00 +9°C° 0 mm 2 m/s 749 mmHg 93%
    03:00 +9°C° 0 mm 2 m/s 749 mmHg 94%
    04:00 +9°C° 0 mm 2 m/s 749 mmHg 92%
    05:00 +10°C° 0 mm 3 m/s 749 mmHg 91%
    06:00 +11°C° 0 mm 3 m/s 750 mmHg 90%
    07:00 +12°C° 0 mm 3 m/s 750 mmHg 84%
    08:00 +13°C° 0 mm 4 m/s 750 mmHg 79%
    09:00 +14°C° 0 mm 4 m/s 751 mmHg 73%
    10:00 +15°C° 0 mm 4 m/s 751 mmHg 67%
    11:00 +15°C° 0 mm 4 m/s 751 mmHg 62%
    12:00 +17°C° 0 mm 4 m/s 751 mmHg 57%
    13:00 +17°C° 0.2 mm 4 m/s 751 mmHg 59%
    14:00 +17°C° 0.2 mm 3 m/s 751 mmHg 60%
    15:00 +17°C° 0.2 mm 3 m/s 751 mmHg 62%
    16:00 +17°C° 0.3 mm 3 m/s 751 mmHg 65%
    17:00 +16°C° 0.3 mm 3 m/s 751 mmHg 68%
    18:00 +16°C° 0.3 mm 3 m/s 751 mmHg 71%
    19:00 +15°C° 0.1 mm 2 m/s 751 mmHg 74%
    20:00 +13°C° 0.1 mm 2 m/s 752 mmHg 76%
    21:00 +12°C° 0.1 mm 2 m/s 752 mmHg 78%
    22:00 +12°C° 0 mm 2 m/s 752 mmHg 80%
    23:00 +10°C° 0 mm 2 m/s 752 mmHg 82%

    21 Juin, Vendredi

    Heure Température Précipitation Vent Pression Humidité
    00:00 +10°C° 0 mm 2 m/s 752 mmHg 84%
    01:00 +9°C° 0 mm 2 m/s 752 mmHg 86%
    02:00 +9°C° 0 mm 2 m/s 752 mmHg 87%
    03:00 +9°C° 0 mm 2 m/s 752 mmHg 89%
    04:00 +9°C° 0 mm 2 m/s 753 mmHg 88%
    05:00 +10°C° 0 mm 2 m/s 753 mmHg 88%
    06:00 +10°C° 0 mm 2 m/s 753 mmHg 87%
    07:00 +13°C° 0.1 mm 2 m/s 753 mmHg 82%
    08:00 +13°C° 0.1 mm 3 m/s 753 mmHg 78%
    09:00 +14°C° 0.1 mm 3 m/s 754 mmHg 73%
    10:00 +16°C° 0.3 mm 3 m/s 754 mmHg 69%
    11:00 +17°C° 0.3 mm 4 m/s 754 mmHg 65%
    12:00 +17°C° 0.3 mm 4 m/s 754 mmHg 61%
    13:00 +16°C° 0 mm 5 m/s 754 mmHg 60%
    14:00 +16°C° 0 mm 5 m/s 754 mmHg 59%
    15:00 +16°C° 0 mm 5 m/s 754 mmHg 58%
    16:00 +16°C° 0 mm 5 m/s 754 mmHg 60%
    17:00 +15°C° 0 mm 5 m/s 755 mmHg 63%
    18:00 +14°C° 0 mm 4 m/s 755 mmHg 65%
    19:00 +13°C° 0 mm 4 m/s 755 mmHg 69%
    20:00 +11°C° 0 mm 3 m/s 756 mmHg 73%
    21:00 +10°C° 0 mm 3 m/s 756 mmHg 77%
    22:00 +9°C° 0 mm 2 m/s 757 mmHg 79%
    23:00 +9°C° 0 mm 2 m/s 757 mmHg 81%
    Voir plus